Location: Fredericksburg
(30.2750°N, 98.8720°W)
Time: 06:36:48
(UTC-06:00)

Daily predictions for brighter satellites

Satellite Brightness Start Highest point End
(mag) Time Altitude Azimuth Time Altitude Azimuth Time Altitude Azimuth
Okean 1 3.5 18:54:23 10° N 18:58:21 50° E 19:02:17 10° SSE
Cosmos 1812 2.7 18:54:41 10° N 18:58:33 89° ENE 19:02:24 10° S
Cosmos 1536 Rocket 3.8 18:58:14 10° N 19:02:34 47° E 19:06:52 10° SSE
ATLAS 2A CENTAUR R/B 4.4 18:57:12 10° W 19:04:32 73° S 19:38:39 11° ESE
Cosmos 2219 3.8 19:03:04 10° S 19:08:17 37° ESE 19:13:31 10° NE
Cosmos 2360 Rocket 2.8 19:07:31 10° N 19:12:39 35° ENE 19:17:46 10° SE
Meteor 1-11 Rocket 3.8 19:12:29 10° S 19:18:09 65° E 19:23:58 10° NNE
DNEPR-1 R/B 3.5 19:14:50 10° NNW 19:19:02 87° WSW 19:23:28 10° SSE
BREEZE-M DEB (TANK) 3.3 19:14:49 10° SW 19:21:10 61° NW 19:23:46 11° NE
Cosmos 1602 3.7 19:17:49 10° S 19:21:41 88° E 19:25:34 10° N
Cosmos 1140 Rocket 3.6 19:18:18 10° SSW 19:23:25 78° WNW 19:28:35 10° NNE
Cosmos 1461 2.9 19:19:39 10° NNW 19:23:43 79° WSW 19:27:52 10° SSE
Resurs 01 Rocket 2.4 19:20:21 10° SE 19:24:08 29° ENE 19:27:55 10° NNE
Cosmos 1300 Rocket 3.5 19:20:33 10° S 19:24:55 87° E 19:29:22 10° N
Abrixas rocket 2.4 19:23:44 10° SW 19:27:04 69° NW 19:29:39 16° NE
DELTA 2 R/B (1) 4.1 19:22:31 10° NW 19:27:54 46° NNE 19:31:31 20° E
ATLAS CENTAUR R/B 2.7 19:22:33 10° SSW 19:29:07 39° SE 19:30:46 23° ENE
Cosmos 614 Rocket 3.9 19:26:02 10° SSW 19:31:08 89° WNW 19:36:13 10° NNE
ASTRO E2 4.2 19:28:43 10° W 19:32:18 31° SSW 19:35:40 11° SE
OAO 3 Copernicus 4.4 19:27:20 10° WNW 19:32:23 64° NNE 19:35:29 23° E
ALOS 2.3 19:28:26 10° SSE 19:32:57 53° ENE 19:37:29 10° N
FREGAT/IRIS 2.7 19:31:47 10° S 19:34:50 77° W 19:37:55 10° NNW
Spot 2 Rocket 3.8 19:34:14 10° SE 19:38:58 44° ENE 19:43:46 10° N
Resurs 1-3 4.0 19:37:45 10° SE 19:41:48 38° ENE 19:45:52 10° N
Cosmos 1340 3.1 19:40:52 10° NNW 19:44:37 63° W 19:48:19 10° S
Cosmos 2181 Rocket 4.0 19:40:15 10° N 19:46:33 88° W 19:52:55 10° S
Cosmos 2333 Rocket 4.2 19:45:15 10° NNE 19:46:14 12° NE 19:46:14 12° NE
SL-16 R/B 3.8 19:44:15 10° NW 19:49:22 36° WSW 19:54:27 10° SSW
Cosmos 1850 Rocket 4.3 19:45:35 10° SSW 19:50:49 70° WNW 19:56:09 10° N
HJ-1C 3.4 19:49:48 10° S 19:53:10 80° W 19:56:32 10° NNW
OTV 4 1.1 19:50:19 10° SW 19:52:48 42° S 19:52:48 42° S
Cosmos 2074 Rocket 3.9 19:48:37 10° S 19:54:49 75° E 20:01:05 10° N
SJ-6B 4.0 19:52:30 10° S 19:56:22 45° W 20:00:11 10° NNW
Helios 1B rocket 2.4 19:54:32 18° NNE 19:57:27 55° E 20:01:30 10° S
Cosmos 2184 Rocket 3.9 19:51:33 10° S 19:57:52 77° E 20:04:09 10° N
FengYun 1-2 T 4.1 19:53:08 10° SSE 19:58:37 89° W 20:04:08 10° NNW
Tiangong 2 1.0 19:55:37 10° WNW 19:58:32 78° W 19:58:32 78° W
Okean 1 Rocket 4.2 19:55:36 10° SSW 19:59:53 47° W 20:04:13 10° N
CZ-3C R/B 2.6 20:00:53 10° SW 20:03:19 15° SSW 20:03:40 15° S
Meteor 1-5 Rocket 4.3 19:59:25 10° S 20:05:23 87° E 20:11:21 10° N
FENGYUN 3A 3.8 20:00:18 10° S 20:05:41 73° WSW 20:11:06 10° NNW
Hubble Space Telescope 1.4 20:02:54 10° SW 20:06:47 41° SSE 20:06:47 41° SSE
H-II Stage 2 3.8 20:06:11 10° SSW 20:06:18 10° SSW 20:06:18 10° SSW
Intercosmos 24 4.4 20:09:07 10° SSW 20:12:55 67° W 20:18:04 10° N
CZ-2D R/B 4.4 20:18:53 35° N 20:18:53 35° N 20:21:09 10° N
BREEZE-M DEB (TANK) 3.8 20:14:36 10° NNW 20:17:19 36° NNE 20:17:19 36° NNE
GPS 2-04 Rocket1 3.5 20:16:52 10° W 20:21:00 48° NNW 20:21:00 48° NNW
Cosmos 2322 4.2 20:16:42 10° NNW 20:22:19 60° WSW 20:27:53 10° S
H-2A R/B 3.4 20:21:38 41° SW 20:22:30 51° W 20:26:08 10° NNW
Cosmos 1025 Rocket 3.1 20:21:05 10° N 20:25:27 74° W 20:25:45 70° SW
Atlas Centaur 2 3.6 20:21:00 10° SSW 20:26:14 27° SSE 20:26:14 27° SSE
Cosmos 2154 Rocket 3.9 20:20:34 10° S 20:26:50 67° E 20:33:07 10° NNE
OAO 3 Rocket 4.1 20:22:24 10° SW 20:26:02 38° S 20:26:02 38° S
Meteor 2-13 Rocket 4.4 20:26:01 10° S 20:32:04 83° W 20:38:11 10° N
Cosmos 2285 Rocket 3.9 20:26:30 10° N 20:32:48 65° ENE 20:32:48 65° ENE
BREEZE-M DEB (TANK) 4.4 20:33:09 10° WNW 20:35:46 29° W 20:35:46 29° W
COSMOS 2428 2.6 20:32:08 10° NNW 20:37:45 87° N 20:37:45 87° N
Cosmos 2237 4.4 20:32:23 10° NNW 20:38:04 69° WSW 20:39:36 48° S
Cosmos 2297 Rocket 4.4 20:33:00 10° S 20:33:28 12° S 20:33:28 12° S
Cosmos 2333 4.3 20:33:24 10° NNW 20:38:23 66° N 20:38:23 66° N
Cosmos 2237 Rocket 4.3 20:36:55 10° N 20:37:45 14° N 20:37:45 14° N
Cosmos 2360 Rocket 4.3 20:51:57 10° NW 20:56:22 24° WSW 21:00:47 10° SSW
Cosmos 2227 Rocket 3.5 20:52:39 10° SSW 20:55:24 30° SSW 20:55:24 30° SSW
Cosmos 2219 Rocket 3.7 20:52:57 10° NNW 20:55:22 26° N 20:55:22 26° N
Resurs 01 Rocket 4.2 20:57:34 10° SW 21:00:34 18° W 21:03:34 10° NW
Cosmos 2333 Rocket 4.4 21:26:56 10° NNW 21:28:17 18° NNW 21:28:17 18° NNW
ATLAS 2A CENTAUR R/B 4.4 21:42:20 10° WSW 22:26:06 - ESE 21:44:17 25° SW
